Weather History for Adrian, MI

Change the Weather History Date:

Wednesday, October 12, 2011

  Actual Average Record
Temperature  
Mean Temperature 58 °F -  
Max Temperature 64 °F 63 °F 81 °F (2008)
Min Temperature 51 °F 38 °F 25 °F (1964)
Degree Days  
Heating Degree Days 8    
Growing Degree Days 8 (Base 50)    
Moisture  
Dew Point 54 °F    
Average Humidity 92    
Maximum Humidity 100    
Minimum Humidity 70    
Precipitation  
Precipitation 0.00 in - - ()
Sea Level Pressure  
Sea Level Pressure 29.89 in    
Wind  
Wind Speed 3 mph (East)    
Max Wind Speed 8 mph    
Max Gust Speed -    
Visibility 5 miles    
Events Fog    
Averages and records for this station are not official NWS values.
T = Trace of Precipitation, MM = Missing Value Source: NWS Daily Summary

Daily Weather History Graph

Daily Weather History Graph

Search for Another Location

Airport:

Trip Planner

Search our weather history database for the weather conditions in past years. The results will help you decide how hot, cold, wet, or windy it might be!

Date:

Astronomy

Oct. 12, 2011 Rise Set
Actual Time 7:44 AM EDT 7:00 PM EDT
Civil Twilight 7:16 AM EDT 7:27 PM EDT
Nautical Twilight 6:44 AM EDT 8:00 PM EDT
Astronomical Twilight 6:12 AM EDT 8:32 PM EDT
Moon 6:59 PM EDT (10/12) 8:20 AM EDT (10/12)
Length of Visible Light 12h 11m
Length of Day
11h 15m
Full, 100% of the Moon is Illuminated
Oct 12
Full
Oct 19
Last Quarter
Oct 26
New
Nov 2
First Quarter
Nov 10
Full

Hourly Weather History & Observations

Time (EDT) Temp. Dew Point Humidity Pressure Visibility Wind Dir Wind Speed Gust Speed Precip Events Conditions
12:53 AM 55.0 °F 53.1 °F 93% 30.00 in 7.0 mi NNE 4.6 mph - N/A   Clear
3:16 AM 51.8 °F 51.8 °F 100% 29.98 in 1.8 mi NNE 3.5 mph - N/A   Clear
3:23 AM 51.8 °F 51.8 °F 100% 29.98 in 1.2 mi NE 3.5 mph - N/A   Clear
3:32 AM 51.8 °F 51.8 °F 100% 29.97 in 2.0 mi NNE 4.6 mph - N/A   Clear
3:53 AM 53.1 °F 53.1 °F 100% 29.96 in 2.0 mi NNE 3.5 mph - N/A   Clear
4:11 AM 55.4 °F 53.6 °F 94% 29.96 in 3.0 mi NNE 3.5 mph - N/A   Clear
4:20 AM 53.6 °F 53.6 °F 100% 29.96 in 2.5 mi Calm Calm - N/A   Clear
4:53 AM 54.0 °F 53.1 °F 97% 29.96 in 1.5 mi Calm Calm - N/A   Clear
5:03 AM 53.6 °F 53.6 °F 100% 29.95 in 1.8 mi NNE 3.5 mph - N/A   Clear
5:10 AM 53.6 °F 53.6 °F 100% 29.95 in 2.0 mi NNE 3.5 mph - N/A   Clear
5:53 AM 53.1 °F 53.1 °F 100% 29.96 in 2.0 mi Calm Calm - N/A   Clear
6:46 AM 53.6 °F 53.6 °F 100% 29.95 in 2.0 mi Calm Calm - N/A   Scattered Clouds
6:53 AM 54.0 °F 54.0 °F 100% 29.96 in 2.5 mi Calm Calm - N/A   Mostly Cloudy
7:25 AM 55.4 °F 55.4 °F 100% 29.95 in 1.5 mi Calm Calm - N/A   Overcast
7:37 AM 55.4 °F 55.4 °F 100% 29.95 in 0.2 mi Calm Calm - N/A Fog Fog
7:53 AM 55.9 °F 55.9 °F 100% 29.96 in 0.2 mi Calm Calm - N/A Fog Fog
8:38 AM 55.4 °F 55.4 °F 100% 29.96 in 1.8 mi SW 4.6 mph - N/A   Mostly Cloudy
8:40 AM 55.4 °F 55.4 °F 100% 29.96 in 2.0 mi SW 3.5 mph - N/A   Scattered Clouds
9:53 AM 57.0 °F 54.0 °F 89% 29.96 in 6.0 mi SSW 4.6 mph - N/A   Clear
10:53 AM 61.0 °F 55.0 °F 81% 29.96 in 10.0 mi SSW 6.9 mph - N/A   Overcast
11:53 AM 63.0 °F 55.0 °F 75% 29.94 in 10.0 mi SW 5.8 mph - N/A   Scattered Clouds
12:53 PM 64.9 °F 55.0 °F 70% 29.92 in 10.0 mi Calm Calm - N/A   Scattered Clouds
1:53 PM 64.9 °F 55.0 °F 70% 29.88 in 10.0 mi ESE 5.8 mph - N/A   Partly Cloudy
2:53 PM 64.0 °F 54.0 °F 70% 29.86 in 10.0 mi SE 4.6 mph - N/A   Overcast
3:53 PM 63.0 °F 55.0 °F 75% 29.85 in 10.0 mi ESE 6.9 mph - N/A   Overcast
4:53 PM 63.0 °F 55.0 °F 75% 29.82 in 10.0 mi ESE 6.9 mph - N/A   Overcast
5:49 PM 62.6 °F 55.4 °F 77% 29.81 in 10.0 mi ESE 6.9 mph - N/A   Overcast
5:53 PM 61.0 °F 55.9 °F 83% 29.81 in 10.0 mi ESE 8.1 mph - N/A   Overcast
6:07 PM 60.8 °F 55.4 °F 82% 29.81 in 10.0 mi East 5.8 mph - N/A   Overcast
6:53 PM 60.1 °F 55.0 °F 83% 29.81 in 10.0 mi East 6.9 mph - N/A   Overcast
7:53 PM 59.0 °F 55.9 °F 90% 29.79 in 10.0 mi ESE 5.8 mph - N/A   Overcast
8:14 PM 57.2 °F 55.4 °F 94% 29.78 in 10.0 mi ESE 5.8 mph - N/A   Overcast
8:53 PM 57.9 °F 55.9 °F 93% 29.78 in 10.0 mi East 4.6 mph - N/A   Overcast
9:53 PM 57.0 °F 55.9 °F 96% 29.79 in 10.0 mi Calm Calm - N/A   Overcast
10:53 PM 54.0 °F 54.0 °F 100% 29.78 in 4.0 mi Calm Calm - N/A   Partly Cloudy
11:07 PM 53.6 °F 53.6 °F 100% 29.77 in 2.5 mi Calm Calm - N/A   Clear
11:17 PM 53.6 °F 53.6 °F 100% 29.77 in 1.5 mi Calm Calm - N/A   Clear
11:35 PM 51.8 °F 51.8 °F 100% 29.76 in 0.8 mi Calm Calm - N/A   Clear
11:44 PM 51.8 °F 51.8 °F 100% 29.76 in 0.8 mi Calm Calm - N/A   Mist
11:53 PM 51.1 °F 51.1 °F 100% 29.77 in 1.5 mi Calm Calm - N/A   Mostly Cloudy